Simultaneous Nadir Overpasses (SNOs) Predictions

Prediction of SNOs between NOAA-20 and LANDSAT-8 Satellite Orbit:

Table of predicted SNOs for the next 14.0 days since TLE Epoch: 1/6/2024
Index Date (NOAA-20) Time (NOAA-20) Lat,Lon (NOAA-20) SZA (NOAA-20 ) Date (LANDSAT-8) Time (LANDSAT-8) Lat,Lon (LANDSAT-8) SZA (LANDSAT-8 ) Distance(km) Time Diff (sec)
1 01/06/2024 06:32:39 70.16, 78.09 92.67 01/06/2024 06:33:43 70.17, 78.12 92.68 2.32 64
2 01/06/2024 07:23:21 -70.07,-114.46 87.43 01/06/2024 07:23:13 -70.06,-114.40 87.44 1.97 8
3 01/06/2024 08:13:57 69.53, 53.65 92.01 01/06/2024 08:12:47 69.57, 52.56 92.09 42.70 70
4 01/08/2024 22:49:32 70.12,-166.08 92.30 01/08/2024 22:50:15 70.11,-166.11 92.28 2.19 43
5 01/08/2024 23:40:14 -70.03, 1.37 87.80 01/08/2024 23:39:45 -70.00, 1.38 87.83 3.59 29
6 01/11/2024 14:15:58 -71.10, 140.81 87.05 01/11/2024 14:17:04 -71.00, 143.46 87.24 96.14 66
7 01/11/2024 15:06:25 70.10, -50.26 91.90 01/11/2024 15:06:46 70.08, -50.28 91.87 2.41 21
8 01/11/2024 15:57:06 -69.95, 117.27 88.27 01/11/2024 15:56:16 -69.97, 117.21 88.24 3.41 50
9 01/14/2024 06:32:36 -70.29,-102.09 88.33 01/14/2024 06:33:48 -70.25,-101.80 88.39 11.97 72
10 01/14/2024 07:23:18 70.08, 65.55 91.44 01/14/2024 07:23:16 70.09, 65.61 91.45 2.63 2
11 01/14/2024 08:13:59 -69.93,-126.91 88.72 01/14/2024 08:12:47 -69.93,-126.98 88.71 2.37 72
12 01/16/2024 22:49:25 -70.12, 13.95 89.00 01/16/2024 22:50:19 -70.14, 13.92 88.98 2.67 54
13 01/16/2024 23:40:09 70.01,-178.57 90.89 01/16/2024 23:39:46 70.03,-178.60 90.90 1.72 23
14 01/17/2024 00:30:37 -69.18, -10.04 89.99 01/17/2024 00:29:29 -69.21, -12.07 89.88 80.59 68
15 01/19/2024 15:06:18 -70.11, 129.75 89.53 01/19/2024 15:06:49 -70.12, 129.76 89.53 1.12 31
16 01/19/2024 15:57:02 70.01, -62.78 90.35 01/19/2024 15:56:16 70.00, -62.76 90.35 1.10 46



Historial Predications of SNOs between NOAA-20 and LANDSAT-8
